Location: Marcé
(47.5801°N, 0.3280°W)
Time: 08:12:28
(UTC+01:00)

Vanguard 1 Rocket - Pass Details

Date: 30 November 2021
Orbit: 651 x 4224 km, 34.3° (Epoch: 23 January)

Event Time Altitude Azimuth Distance (km) Brightness Sun altitude
Exits shadow 07:02:09 - 256° (WSW) 5,450 10.8 -13.9°
Reaches altitude 10° 07:03:03 10° 255° (WSW) 5,290 10.8 -13.7°
Maximum altitude 07:19:53 55° 184° (S) 4,179 10.8 -11.0°
Drops below altitude 10° 07:44:36 10° 116° (ESE) 7,393 13.8 -7.2°
Sets 07:50:23 0° 113° (ESE) 8,291 15.1 -6.3°
